Location: Schommer Observatory
(40.5200°N, 74.4500°W)
Time: 16:52:29
(UTC-05:00)

Vanguard 2 - Visible Passes

Search period start: 17 January 2018 00:00
Search period end: 27 January 2018 00:00
Orbit: 552 x 2940 km, 32.9° (Epoch: 16 January)

Date Brightness Start Highest point End Pass type
(mag) Time Alt. Az. Time Alt. Az. Time Alt. Az.
17 Jan 10.6 02:50:42 26° SE 02:50:42 26° SE 03:00:04 10° E visible
17 Jan 10.1 04:52:08 27° SW 04:58:50 55° SSE 05:14:28 10° E visible
18 Jan 10.2 03:07:59 33° SE 03:07:59 33° SE 03:18:51 10° E visible
18 Jan 10.0 05:09:26 24° WSW 05:16:49 59° SSE 05:32:48 10° E visible
19 Jan 9.9 03:25:14 40° SSE 03:25:14 40° SSE 03:37:25 10° E visible
19 Jan 10.0 05:26:40 21° WSW 05:34:52 62° S 05:51:06 10° E visible
20 Jan 11.3 01:41:00 10° E 01:41:00 10° E 01:41:06 10° E visible
20 Jan 9.6 03:42:26 47° SSE 03:42:54 47° SSE 03:55:52 10° E visible
20 Jan 10.1 05:43:52 17° WSW 05:52:58 63° S 06:09:19 10° ESE visible
21 Jan 11.1 01:58:09 15° ESE 01:58:09 15° ESE 02:00:17 10° E visible
21 Jan 9.4 03:59:35 51° S 04:00:46 53° SSE 04:14:14 10° E visible
21 Jan 10.1 06:01:01 13° W 06:11:05 61° S 06:27:29 10° ESE visible
22 Jan 10.8 02:15:17 19° ESE 02:15:17 19° ESE 02:19:02 10° E visible
22 Jan 9.3 04:16:43 50° SSW 04:18:43 57° S 04:32:33 10° E visible
22 Jan 10.3 06:18:16 10° W 06:29:13 58° S 06:45:31 10° ESE visible
23 Jan 10.6 02:32:24 25° ESE 02:32:24 25° ESE 02:37:33 10° E visible
23 Jan 9.3 04:33:49 46° SW 04:36:44 59° S 04:50:50 10° ESE visible
23 Jan 10.4 06:36:22 10° W 06:47:19 53° SSW 07:03:22 10° SE visible
24 Jan 10.3 02:49:30 31° ESE 02:49:30 31° ESE 02:55:57 10° E visible
24 Jan 9.4 04:50:55 39° WSW 04:54:48 58° S 05:09:02 10° ESE visible
25 Jan 10.0 03:06:35 37° ESE 03:06:35 37° ESE 03:14:16 10° E visible
25 Jan 9.6 05:08:01 32° WSW 05:12:53 56° S 05:27:07 10° ESE visible
26 Jan 9.7 03:23:40 44° SE 03:23:40 44° SE 03:32:33 10° E visible
26 Jan 9.8 05:25:06 25° WSW 05:30:58 51° S 05:45:05 10° ESE visible
